| time (UTC) | temp F | wind direction | speed MPH | gust MPH | rain 1hr in | rain 24hr in | rain mn in | humidity % | barometer mb |
| 20260504120304 | 72 | 312 | 1.0 | 2.0 | 0.00 | 0.00 | 0.00 | 46 | 1013.6 |
| 20260504110303 | 72 | 278 | 0.0 | 3.0 | 0.00 | 0.00 | 0.00 | 50 | 1013.7 |
| 20260504100303 | 72 | 97 | 1.0 | 3.0 | 0.00 | 0.00 | 0.00 | 48 | 1014.2 |
| 20260504081804 | 66 | 71 | 1.0 | 3.0 | 0.00 | 0.00 | 0.00 | 61 | 1015.0 |
| 20260504081303 | 65 | 88 | 1.0 | 3.0 | 0.00 | 0.00 | 0.00 | 63 | 1015.0 |
| 20260504050303 | 49 | 74 | 0.0 | 0.0 | 0.00 | 0.00 | 0.00 | 89 | 1015.0 |
| 20260504045804 | 49 | 74 | 0.0 | 0.0 | 0.00 | 0.00 | 0.00 | 89 | 1015.0 |
| 20260504045304 | 48 | 74 | 0.0 | 0.0 | 0.00 | 0.00 | 0.00 | 89 | 1015.0 |
| 20260504044804 | 48 | 74 | 0.0 | 0.0 | 0.00 | 0.00 | 0.00 | 89 | 1015.0 |
| 20260504044304 | 48 | 74 | 0.0 | 0.0 | 0.00 | 0.00 | 0.00 | 89 | 1015.0 |
| 20260504043803 | 48 | 74 | 0.0 | 0.0 | 0.00 | 0.00 | 0.00 | 89 | 1015.0 |
| 20260504043303 | 48 | 74 | 0.0 | 0.0 | 0.00 | 0.00 | 0.00 | 90 | 1015.0 |
| 20260504042803 | 48 | 74 | 0.0 | 0.0 | 0.00 | 0.00 | 0.00 | 89 | 1015.0 |
| 20260504042304 | 48 | 74 | 0.0 | 0.0 | 0.00 | 0.00 | 0.00 | 89 | 1015.0 |
| 20260504041803 | 49 | 74 | 0.0 | 0.0 | 0.00 | 0.00 | 0.00 | 89 | 1015.0 |
| 20260504041304 | 49 | 74 | 0.0 | 0.0 | 0.00 | 0.00 | 0.00 | 88 | 1015.0 |
| 20260504040803 | 49 | 74 | 0.0 | 0.0 | 0.00 | 0.00 | 0.00 | 88 | 1015.0 |
| 20260504035803 | 49 | 74 | 0.0 | 0.0 | 0.00 | 0.00 | 0.00 | 87 | 1015.0 |
| 20260504035305 | 50 | 74 | 0.0 | 0.0 | 0.00 | 0.00 | 0.00 | 86 | 1015.0 |
| 20260504034804 | 50 | 74 | 0.0 | 0.0 | 0.00 | 0.00 | 0.00 | 85 | 1015.0 |
| 20260504033805 | 50 | 74 | 0.0 | 0.0 | 0.00 | 0.00 | 0.00 | 85 | 1015.0 |
| 20260504033303 | 51 | 74 | 0.0 | 0.0 | 0.00 | 0.00 | 0.00 | 85 | 1015.0 |
| 20260504032803 | 51 | 74 | 0.0 | 0.0 | 0.00 | 0.00 | 0.00 | 84 | 1015.0 |
| 20260504032304 | 51 | 74 | 0.0 | 0.0 | 0.00 | 0.00 | 0.00 | 84 | 1015.0 |
| 20260504031804 | 51 | 74 | 0.0 | 0.0 | 0.00 | 0.00 | 0.00 | 83 | 1015.0 |
| 20260504030803 | 52 | 74 | 0.0 | 0.0 | 0.00 | 0.00 | 0.00 | 83 | 1015.0 |
| 20260504030304 | 52 | 74 | 0.0 | 0.0 | 0.00 | 0.00 | 0.00 | 83 | 1015.0 |
| 20260504025804 | 52 | 74 | 0.0 | 0.0 | 0.00 | 0.00 | 0.00 | 83 | 1015.0 |
| 20260504025304 | 52 | 74 | 0.0 | 0.0 | 0.00 | 0.00 | 0.00 | 82 | 1015.0 |
| 20260504024303 | 52 | 74 | 0.0 | 0.0 | 0.00 | 0.00 | 0.00 | 81 | 1015.0 |
| 20260504023303 | 52 | 74 | 0.0 | 0.0 | 0.00 | 0.00 | 0.00 | 82 | 1015.0 |
| 20260504022803 | 52 | 74 | 0.0 | 0.0 | 0.00 | 0.00 | 0.00 | 81 | 1015.0 |
| 20260504022305 | 52 | 74 | 0.0 | 0.0 | 0.00 | 0.00 | 0.00 | 81 | 1015.0 |
| 20260504021804 | 53 | 74 | 0.0 | 0.0 | 0.00 | 0.00 | 0.00 | 80 | 1015.0 |
| 20260504020803 | 53 | 74 | 0.0 | 0.0 | 0.00 | 0.00 | 0.00 | 80 | 1015.0 |
| 20260504015804 | 53 | 74 | 0.0 | 0.0 | 0.00 | 0.00 | 0.00 | 81 | 1014.9 |
| 20260504015304 | 53 | 74 | 0.0 | 0.0 | 0.00 | 0.00 | 0.00 | 79 | 1014.9 |
| 20260504014303 | 55 | 74 | 0.0 | 0.0 | 0.00 | 0.00 | 0.00 | 77 | 1014.8 |
| 20260504013803 | 55 | 74 | 0.0 | 0.0 | 0.00 | 0.00 | 0.00 | 76 | 1014.8 |
| 20260504013303 | 56 | 74 | 0.0 | 1.0 | 0.00 | 0.00 | 0.00 | 76 | 1014.8 |
| 20260504012804 | 56 | 74 | 0.0 | 0.0 | 0.00 | 0.00 | 0.00 | 76 | 1014.9 |
| 20260504012304 | 56 | 74 | 0.0 | 0.0 | 0.00 | 0.00 | 0.00 | 76 | 1014.8 |
| 20260504011803 | 56 | 74 | 0.0 | 0.0 | 0.00 | 0.00 | 0.00 | 75 | 1014.8 |
| 20260504010803 | 56 | 74 | 0.0 | 0.0 | 0.00 | 0.00 | 0.00 | 75 | 1014.8 |
| 20260504010318 | 57 | 74 | 0.0 | 0.0 | 0.00 | 0.00 | 0.00 | 75 | 1014.8 |
| 20260504005804 | 57 | 74 | 0.0 | 0.0 | 0.00 | 0.00 | 0.00 | 75 | 1014.8 |
| 20260504005304 | 57 | 74 | 0.0 | 0.0 | 0.00 | 0.00 | 0.00 | 74 | 1014.8 |
| 20260504004804 | 57 | 74 | 0.0 | 0.0 | 0.00 | 0.00 | 0.00 | 74 | 1014.8 |
| 20260504004304 | 57 | 74 | 0.0 | 0.0 | 0.00 | 0.00 | 0.00 | 73 | 1014.8 |
| 20260504003803 | 57 | 74 | 0.0 | 0.0 | 0.00 | 0.00 | 0.00 | 73 | 1014.8 |
| 20260504003304 | 57 | 74 | 0.0 | 1.0 | 0.00 | 0.00 | 0.00 | 72 | 1014.8 |
| 20260504002304 | 58 | 74 | 0.0 | 0.0 | 0.00 | 0.00 | 0.00 | 71 | 1014.9 |
| 20260504001803 | 58 | 74 | 0.0 | 0.0 | 0.00 | 0.00 | 0.00 | 71 | 1015.0 |
| 20260504000803 | 58 | 74 | 0.0 | 0.0 | 0.00 | 0.00 | 0.00 | 71 | 1015.0 |
| 20260504000303 | 58 | 74 | 0.0 | 0.0 | 0.00 | 0.00 | 0.00 | 70 | 1015.0 |
| 20260503235804 | 58 | 74 | 0.0 | 0.0 | 0.00 | 0.00 | 0.00 | 70 | 1015.0 |
| 20260503235304 | 58 | 74 | 0.0 | 1.0 | 0.00 | 0.00 | 0.00 | 69 | 1015.3 |
| 20260503234803 | 58 | 74 | 0.0 | 1.0 | 0.00 | 0.00 | 0.00 | 69 | 1015.3 |
| 20260503234303 | 58 | 74 | 0.0 | 0.0 | 0.00 | 0.00 | 0.00 | 69 | 1015.3 |
| 20260503233804 | 58 | 74 | 0.0 | 0.0 | 0.00 | 0.00 | 0.00 | 68 | 1015.3 |
| 20260503233303 | 58 | 74 | 0.0 | 1.0 | 0.00 | 0.00 | 0.00 | 69 | 1015.3 |
| 20260503232803 | 58 | 74 | 0.0 | 0.0 | 0.00 | 0.00 | 0.00 | 67 | 1015.3 |
| 20260503230804 | 59 | 74 | 0.0 | 2.0 | 0.00 | 0.00 | 0.00 | 68 | 1015.3 |
| 20260503230304 | 59 | 74 | 0.0 | 1.0 | 0.00 | 0.00 | 0.00 | 67 | 1015.3 |
| 20260503225304 | 59 | 74 | 0.0 | 1.0 | 0.00 | 0.00 | 0.00 | 66 | 1015.3 |
| 20260503224804 | 59 | 74 | 0.0 | 2.0 | 0.00 | 0.00 | 0.00 | 65 | 1015.4 |
| 20260503224303 | 59 | 74 | 0.0 | 2.0 | 0.00 | 0.00 | 0.00 | 65 | 1015.4 |
| 20260503223804 | 59 | 346 | 0.0 | 2.0 | 0.00 | 0.00 | 0.00 | 64 | 1015.4 |
| 20260503223303 | 59 | 338 | 0.0 | 0.0 | 0.00 | 0.00 | 0.00 | 64 | 1015.4 |
| 20260503222804 | 59 | 338 | 0.0 | 1.0 | 0.00 | 0.00 | 0.00 | 63 | 1015.4 |
| 20260503221804 | 60 | 338 | 0.0 | 1.0 | 0.00 | 0.00 | 0.00 | 62 | 1015.3 |
| 20260503221304 | 60 | 338 | 0.0 | 0.0 | 0.00 | 0.00 | 0.00 | 62 | 1015.3 |
| 20260503220303 | 60 | 338 | 0.0 | 0.0 | 0.00 | 0.00 | 0.00 | 61 | 1015.3 |
| 20260503215804 | 60 | 338 | 0.0 | 0.0 | 0.00 | 0.00 | 0.00 | 63 | 1015.3 |
| 20260503215304 | 60 | 338 | 0.0 | 0.0 | 0.00 | 0.00 | 0.00 | 59 | 1015.3 |
| 20260503214803 | 60 | 338 | 0.0 | 0.0 | 0.00 | 0.00 | 0.00 | 60 | 1015.2 |
| 20260503214303 | 61 | 338 | 0.0 | 0.0 | 0.00 | 0.00 | 0.00 | 58 | 1015.2 |
| 20260503213803 | 61 | 338 | 0.0 | 0.0 | 0.00 | 0.00 | 0.00 | 57 | 1015.2 |
| 20260503213304 | 61 | 338 | 0.0 | 0.0 | 0.00 | 0.00 | 0.00 | 57 | 1015.2 |
| 20260503212804 | 61 | 338 | 0.0 | 0.0 | 0.00 | 0.00 | 0.00 | 56 | 1015.2 |
| 20260503212305 | 61 | 338 | 0.0 | 0.0 | 0.00 | 0.00 | 0.00 | 55 | 1015.2 |
| 20260503211803 | 62 | 338 | 0.0 | 1.0 | 0.00 | 0.00 | 0.00 | 54 | 1014.9 |
| 20260503211304 | 62 | 338 | 0.0 | 1.0 | 0.00 | 0.00 | 0.00 | 53 | 1014.9 |
| 20260503210803 | 62 | 338 | 0.0 | 2.0 | 0.00 | 0.00 | 0.00 | 53 | 1014.9 |
| 20260503210304 | 62 | 12 | 0.0 | 2.0 | 0.00 | 0.00 | 0.00 | 54 | 1014.9 |
| 20260503205803 | 62 | 350 | 0.0 | 2.0 | 0.00 | 0.00 | 0.00 | 54 | 1014.9 |
| 20260503204804 | 62 | 323 | 0.0 | 1.0 | 0.00 | 0.00 | 0.00 | 53 | 1014.6 |
| 20260503204303 | 62 | 323 | 0.0 | 1.0 | 0.00 | 0.00 | 0.00 | 53 | 1014.6 |
| 20260503203804 | 62 | 327 | 0.0 | 2.0 | 0.00 | 0.00 | 0.00 | 53 | 1014.6 |
| 20260503203304 | 62 | 327 | 0.0 | 2.0 | 0.00 | 0.00 | 0.00 | 53 | 1014.6 |
| 20260503202804 | 62 | 327 | 1.0 | 2.0 | 0.00 | 0.00 | 0.00 | 53 | 1014.6 |
| 20260503202304 | 62 | 328 | 1.0 | 3.0 | 0.00 | 0.00 | 0.00 | 53 | 1014.6 |
| 20260503201304 | 62 | 315 | 1.0 | 5.0 | 0.00 | 0.00 | 0.00 | 54 | 1014.6 |
| 20260503200304 | 63 | 344 | 0.0 | 1.0 | 0.00 | 0.00 | 0.00 | 52 | 1013.9 |
| 20260503195804 | 63 | 344 | 0.0 | 1.0 | 0.00 | 0.00 | 0.00 | 51 | 1013.9 |
| 20260503195304 | 63 | 344 | 0.0 | 1.0 | 0.00 | 0.00 | 0.00 | 52 | 1013.9 |
| 20260503194304 | 64 | 344 | 1.0 | 2.0 | 0.00 | 0.00 | 0.00 | 50 | 1013.9 |
| 20260503193803 | 64 | 344 | 1.0 | 2.0 | 0.00 | 0.00 | 0.00 | 49 | 1013.9 |
| 20260503193304 | 64 | 326 | 0.0 | 3.0 | 0.00 | 0.00 | 0.00 | 50 | 1013.9 |
| 20260503192305 | 65 | 17 | 0.0 | 3.0 | 0.00 | 0.00 | 0.00 | 49 | 1013.9 |
| 20260503191803 | 65 | 28 | 1.0 | 5.0 | 0.00 | 0.00 | 0.00 | 48 | 1013.9 |
| 20260503190804 | 65 | 313 | 1.0 | 5.0 | 0.00 | 0.00 | 0.00 | 48 | 1013.7 |
| 20260503185804 | 66 | 269 | 2.0 | 6.0 | 0.00 | 0.00 | 0.00 | 46 | 1013.7 |
| 20260503184804 | 66 | 301 | 2.0 | 7.0 | 0.00 | 0.00 | 0.00 | 46 | 1013.7 |
| 20260503184303 | 67 | 336 | 2.0 | 6.0 | 0.00 | 0.00 | 0.00 | 46 | 1013.7 |
| 20260503183803 | 67 | 314 | 2.0 | 7.0 | 0.00 | 0.00 | 0.00 | 46 | 1013.7 |
| 20260503183303 | 67 | 293 | 2.0 | 6.0 | 0.00 | 0.00 | 0.00 | 46 | 1013.7 |
| 20260503182804 | 67 | 306 | 2.0 | 5.0 | 0.00 | 0.00 | 0.00 | 46 | 1013.1 |
| 20260503182305 | 68 | 294 | 3.0 | 12.0 | 0.00 | 0.00 | 0.00 | 45 | 1013.1 |
| 20260503181803 | 68 | 312 | 3.0 | 12.0 | 0.00 | 0.00 | 0.00 | 45 | 1013.1 |
| 20260503180804 | 69 | 340 | 3.0 | 9.0 | 0.00 | 0.00 | 0.00 | 46 | 1013.1 |
| 20260503180303 | 70 | 295 | 2.0 | 8.0 | 0.00 | 0.00 | 0.00 | 51 | 1013.0 |
| 20260503175804 | 70 | 316 | 2.0 | 5.0 | 0.00 | 0.00 | 0.00 | 57 | 1012.8 |
| 20260503173804 | 71 | 19 | 1.0 | 3.0 | 0.00 | 0.00 | 0.00 | 56 | 1012.7 |
| 20260503173303 | 71 | 355 | 0.0 | 2.0 | 0.00 | 0.00 | 0.00 | 56 | 1012.7 |
| 20260503172805 | 71 | 266 | 0.0 | 1.0 | 0.00 | 0.00 | 0.00 | 55 | 1012.7 |
| 20260503171804 | 71 | 270 | 1.0 | 3.0 | 0.00 | 0.00 | 0.00 | 54 | 1012.7 |
| 20260503171303 | 72 | 295 | 1.0 | 3.0 | 0.00 | 0.00 | 0.00 | 54 | 1012.7 |
| 20260503170803 | 72 | 292 | 0.0 | 2.0 | 0.00 | 0.00 | 0.00 | 55 | 1012.7 |
| 20260503150304 | 77 | 213 | 0.0 | 2.0 | 0.00 | 0.00 | 0.00 | 40 | 1012.4 |
| 20260503140304 | 81 | 286 | 1.0 | 2.0 | 0.00 | 0.00 | 0.00 | 36 | 1012.9 |
| 20260503130303 | 79 | 115 | 0.0 | 2.0 | 0.00 | 0.00 | 0.00 | 35 | 1014.0 |